Wind_Speed
30 32 34 28 27 28 32 36 39 38 35 38 39 38 33 29 29 27 24 23 26 28 28 30 31 32 31 31 31 33 34 35 37 36 36 34 33 34 34 33 32 30 30 29
36 43 37 34 35 35 37 38 40 39 31 29 32 37 32 20 13 10 13 13 15 16 22 28 32 35 34 35 35 35 34 35 36 36 37 36 36 36 36 35 35 35 32 30
37 37 29 28 31 31 33 31 31 28 26 27 27 25 5 4 18 11 15 19 23 24 25 26 28 29 33 40 38 36 36 37 37 37 38 38 40 41 39 37 37 36 34 33
24 26 34 33 35 35 36 33 28 21 17 11 11 7 9 17 8 15 17 17 16 14 12 12 12 15 25 30 36 41 41 40 41 40 40 39 41 40 38 38 38 38 34 34
9 10 9 12 11 11 19 13 16 17 17 20 17 9 3 6 16 11 10 9 7 9 12 12 14 16 19 22 29 36 39 41 43 42 42 42 42 41 38 40 40 39 38 38
20 21 19 18 17 14 15 12 15 20 16 7 19 16 3 12 13 8 7 6 4 7 9 9 12 13 15 21 24 30 34 39 41 41 42 43 41 40 40 41 42 40 39 39
16 21 23 23 23 23 22 16 3 3 4 6 4 10 8 10 8 9 9 8 9 11 13 15 12 7 8 10 17 24 28 32 33 38 40 42 40 40 40 41 41 40 39 37
14 11 18 16 23 16 17 25 10 7 4 3 5 7 8 19 18 13 11 10 10 15 16 11 10 14 16 16 13 12 20 27 31 36 38 39 39 41 40 40 40 41 41 41
9 10 13 17 14 17 11 17 20 8 4 1 8 6 14 20 21 14 11 14 17 19 22 23 25 25 25 24 22 18 15 17 26 30 34 36 38 41 39 41 42 42 42 41
15 14 19 19 19 15 15 9 7 9 4 5 5 8 9 23 20 17 17 19 21 24 27 31 33 34 34 34 29 24 24 19 20 25 29 32 37 40 40 41 41 41 41 39
15 15 12 11 14 15 16 20 14 10 9 4 4 6 14 15 10 18 23 26 33 38 40 38 39 41 42 36 33 29 28 26 22 23 27 32 36 39 39 39 39 39 38 38
17 13 12 18 16 21 22 20 21 11 6 8 6 18 18 17 16 20 26 33 39 35 33 34 34 38 42 42 33 31 26 26 26 24 25 28 32 34 36 37 38 39 38 38
14 11 6 4 5 16 20 17 15 12 8 6 4 6 7 17 30 38 38 35 31 28 26 27 27 28 31 36 35 28 25 27 28 28 28 28 30 35 38 38 38 38 38 36
21 22 18 14 9 5 9 14 17 15 9 14 21 28 31 35 35 37 31 29 30 29 28 26 26 27 29 29 31 30 27 27 26 29 29 32 34 36 37 38 37 37 36 36
24 19 23 24 19 20 21 26 27 25 27 20 34 29 33 34 36 30 30 29 28 28 28 27 28 27 28 29 25 24 26 28 28 30 32 33 35 36 37 34 33 34 34 35
12 8 13 22 21 23 27 28 28 29 29 29 26 25 31 27 24 24 25 25 25 25 26 27 28 27 26 27 24 21 20 24 27 31 33 31 29 28 28 28 28 28 27 27
22 21 16 13 19 19 17 26 28 29 26 24 23 19 19 18 18 22 24 26 26 24 23 23 24 25 24 23 23 21 18 19 24 27 24 22 21 22 23 23 24 25 25 25
27 28 25 18 15 6 14 16 18 19 17 17 17 17 13 13 19 24 26 24 24 23 22 21 21 21 21 19 19 17 12 13 16 17 17 17 18 19 20 20 21 21 22 22
25 28 21 6 13 13 15 14 12 13 14 14 15 14 12 13 18 21 23 22 19 18 18 18 16 16 14 12 10 9 8 10 13 14 15 17 17 18 18 19 18 19 20 21
13 17 26 11 5 6 9 17 15 14 10 11 12 12 11 15 15 17 17 16 16 16 15 14 12 11 9 4 3 4 5 8 11 14 15 16 17 17 17 17 18 18 19 21
16 14 24 25 13 8 10 11 10 7 6 12 9 9 13 17 19 15 13 14 14 13 13 12 10 7 5 2 2 4 7 10 12 14 15 15 15 15 16 16 17 18 20 21
13 10 13 14 12 7 9 10 11 9 9 12 10 12 14 17 16 15 13 13 13 12 11 10 9 7 4 4 5 7 9 11 13 13 13 13 14 14 15 16 18 20 21 18
13 12 7 7 8 11 9 14 14 12 10 12 13 15 17 16 15 16 16 14 14 13 11 10 9 8 6 4 4 6 7 9 10 11 12 13 13 14 16 18 19 19 15 10
7 9 5 4 8 10 11 11 12 14 16 15 16 16 16 16 18 17 17 16 16 15 14 13 11 10 9 9 9 9 10 12 13 13 14 15 16 17 17 15 13 10 7 11
8 5 7 9 9 11 14 16 15 16 17 17 18 18 19 19 20 20 19 18 18 17 17 16 15 13 13 12 12 12 13 13 13 14 14 14 14 14 13 10 8 11 13 15
7 8 8 8 11 12 14 14 15 16 18 19 17 18 20 20 20 20 19 19 18 19 19 19 18 17 16 15 13 11 10 10 10 10 10 10 10 11 12 13 15 17 17 17
Wind_Direction
263 255 249 261 272 271 270 273 277 280 284 285 284 288 288 289 292 298 291 283 274 267 259 259 257 254 249 247 246 246 245 244 244 245 247 249 251 252 252 252 252 251 254 257
254 253 264 263 260 263 267 269 270 279 286 285 291 289 297 304 314 317 293 277 268 259 252 253 252 249 248 246 247 247 248 249 250 250 250 250 252 254 254 254 254 252 254 256
258 261 264 259 256 253 258 258 269 280 287 283 290 298 133 330 312 287 284 277 273 266 262 260 258 253 248 245 244 245 249 251 251 251 251 251 250 250 253 256 258 257 254 256
265 265 257 255 253 253 261 266 274 264 271 266 271 292 280 301 186 273 263 251 249 251 254 254 257 258 250 244 241 242 242 243 246 248 248 248 250 253 256 258 259 261 257 260
263 264 238 237 262 270 264 254 258 264 263 276 264 248 272 180 229 214 224 228 255 292 308 293 281 278 263 254 243 241 240 239 242 245 246 248 248 250 253 252 255 257 256 255
258 258 256 258 263 258 251 251 265 278 265 261 260 230 166 186 188 198 212 226 262 299 309 310 301 283 265 253 245 241 239 240 240 240 243 247 248 250 249 251 254 256 258 261
273 264 265 257 254 247 243 240 273 249 181 233 134 208 214 191 209 209 230 261 292 303 284 285 294 311 308 301 269 253 244 239 237 237 239 242 246 247 248 249 252 255 257 256
268 266 254 247 234 246 235 228 197 225 198 200 199 225 208 218 219 215 236 260 281 283 274 265 287 316 325 323 323 307 268 252 240 236 237 240 243 245 246 247 250 252 255 257
244 252 238 233 221 217 216 215 233 262 280 219 233 176 177 199 198 212 247 267 271 273 279 284 295 303 310 310 310 305 300 277 250 239 236 236 238 242 245 246 248 250 253 255
252 267 254 231 210 209 224 217 203 200 208 221 234 207 232 216 240 267 290 286 289 298 297 302 302 301 303 305 301 299 293 285 273 248 233 229 236 239 241 243 245 248 250 254
244 247 249 217 227 240 251 246 231 231 234 226 248 239 239 224 280 285 299 311 307 309 306 304 301 302 303 297 294 292 287 278 270 260 238 225 232 238 240 243 244 245 247 250
250 262 251 257 253 249 249 247 244 241 235 219 255 259 252 250 280 291 297 299 300 303 303 298 291 286 288 290 291 283 273 266 258 247 237 226 228 237 243 243 243 244 247 248
244 232 252 259 231 236 241 245 245 245 265 237 248 261 278 281 294 294 298 302 304 305 302 301 294 281 271 270 276 275 251 242 246 238 228 220 226 232 236 239 241 244 247 249
246 237 238 243 250 215 219 233 274 277 259 266 252 272 276 282 288 296 304 310 313 313 309 303 296 289 278 274 268 270 260 247 237 231 217 224 225 230 235 239 241 241 242 244
251 262 265 262 254 258 268 270 273 271 268 254 272 275 280 285 296 306 314 319 315 312 309 304 295 286 278 274 269 263 255 249 242 228 225 226 231 235 237 238 245 250 253 257
277 275 287 280 270 269 271 272 270 267 268 265 261 259 271 281 289 302 306 310 312 313 309 304 301 295 284 271 261 254 252 250 239 229 229 233 240 248 257 261 263 264 262 259
281 278 276 273 285 274 261 258 258 257 255 254 253 257 255 270 287 304 315 323 325 322 316 309 302 296 290 274 257 244 239 243 245 244 244 250 254 259 260 258 258 258 258 258
261 263 264 262 266 233 249 254 254 250 244 239 252 261 271 292 317 322 322 324 328 329 326 319 311 301 295 280 257 244 237 242 241 240 244 254 259 260 259 258 255 255 256 257
252 246 254 244 230 260 258 246 235 226 231 242 247 260 277 303 314 316 316 320 327 330 333 331 325 312 299 279 252 224 213 223 228 235 246 250 251 255 258 256 253 252 253 257
273 240 239 229 222 219 249 240 236 223 227 246 243 250 270 300 305 306 306 312 323 329 336 338 336 324 307 281 221 194 200 220 235 246 251 254 258 256 250 249 252 256 259 259
257 242 224 245 247 235 245 221 203 204 216 223 228 258 289 303 309 310 305 310 318 325 331 343 344 337 331 333 181 201 226 239 248 255 260 261 256 254 254 255 255 256 251 243
245 234 231 230 226 224 240 211 209 212 202 212 249 277 292 300 302 302 305 306 308 314 323 336 346 350 338 296 272 261 257 257 259 260 257 253 251 250 252 254 252 243 235 230
244 241 221 207 190 185 186 209 216 223 232 254 266 278 290 295 294 295 296 296 295 297 304 315 321 324 323 312 291 276 268 266 263 262 261 261 261 259 252 242 235 229 222 221
229 199 210 202 227 214 211 220 234 249 258 266 277 283 287 288 290 290 288 284 283 283 287 294 297 294 291 287 285 282 280 276 273 271 267 261 253 244 234 225 220 219 236 251
255 222 227 233 245 241 248 252 259 269 276 282 285 287 286 286 287 287 284 280 274 272 274 279 282 281 279 277 273 269 265 261 256 254 251 248 245 242 238 236 244 250 249 250
256 246 229 234 243 251 262 270 274 277 278 281 281 282 284 283 282 283 282 278 273 268 265 267 273 274 270 266 265 267 274 279 277 276 274 272 271 270 269 264 258 253 250 246
Height
3055 3054 3052 3055 3056 3055 3054 3052 3049 3050 3053 3048 3047 3043 3047 3049 3049 3049 3048 3048 3047 3046 3047 3049 3050 3050 3052 3054 3055 3056 3058 3060 3062 3065 3067 3070 3072 3075 3077 3079 3080 3081 3083 3086
3046 3037 3047 3048 3047 3046 3044 3043 3041 3041 3045 3041 3038 3034 3037 3040 3042 3042 3040 3039 3038 3036 3037 3037 3038 3040 3042 3044 3047 3049 3051 3053 3054 3056 3059 3062 3065 3066 3068 3070 3073 3075 3076 3078
3036 3036 3037 3038 3038 3038 3034 3035 3036 3038 3037 3034 3031 3028 3030 3035 3038 3034 3031 3032 3030 3029 3029 3029 3028 3029 3030 3033 3036 3038 3042 3044 3046 3049 3051 3053 3055 3057 3060 3063 3065 3067 3069 3071
3029 3029 3028 3030 3031 3033 3028 3033 3032 3032 3032 3029 3027 3024 3024 3027 3027 3026 3023 3022 3023 3022 3021 3020 3020 3020 3021 3023 3024 3026 3029 3032 3034 3038 3041 3046 3048 3050 3054 3055 3055 3057 3059 3062
3027 3024 3024 3024 3026 3026 3025 3027 3028 3028 3027 3024 3021 3025 3019 3021 3017 3017 3017 3017 3016 3017 3016 3015 3014 3013 3013 3013 3014 3015 3017 3020 3023 3028 3032 3035 3037 3041 3044 3045 3047 3048 3051 3053
3022 3022 3021 3021 3022 3023 3023 3023 3025 3024 3024 3020 3015 3018 3015 3013 3011 3011 3012 3011 3012 3011 3011 3010 3008 3007 3006 3005 3005 3006 3006 3008 3013 3017 3021 3024 3028 3032 3034 3037 3039 3041 3043 3045
3015 3015 3015 3015 3016 3016 3017 3018 3021 3020 3020 3011 3009 3012 3011 3007 3007 3007 3008 3007 3006 3006 3005 3004 3005 3003 3002 3000 2999 2998 2998 2999 3002 3004 3009 3013 3019 3022 3024 3028 3031 3033 3035 3036
3010 3006 3008 3007 3007 3009 3008 3010 3010 3008 3008 3006 3006 3002 2999 3000 3003 3001 3001 3001 3001 3000 2999 3000 3000 3000 2998 2996 2995 2993 2991 2992 2993 2994 2998 3004 3009 3011 3015 3018 3021 3024 3026 3029
3004 2999 2999 3000 3000 3003 3003 3004 3005 3004 3003 3003 2998 2997 2998 2995 2994 2995 2995 2995 2995 2996 2996 2995 2994 2994 2993 2992 2990 2989 2987 2986 2985 2986 2990 2994 2999 3002 3006 3009 3011 3014 3017 3020
2998 2996 2993 2995 2996 2997 2997 2999 3000 3000 3000 2999 2991 2990 2988 2989 2989 2989 2988 2989 2989 2989 2988 2987 2986 2986 2985 2985 2984 2983 2982 2981 2980 2979 2981 2986 2991 2994 2996 2998 3002 3005 3008 3010
2995 2995 2992 2992 2992 2992 2994 2993 2994 2994 2993 2990 2988 2986 2984 2983 2984 2983 2982 2981 2980 2978 2977 2978 2978 2975 2974 2976 2976 2975 2976 2974 2974 2973 2973 2977 2982 2986 2988 2990 2992 2995 2997 2999
2987 2986 2985 2986 2988 2988 2988 2988 2989 2988 2987 2986 2985 2980 2980 2979 2980 2980 2980 2980 2979 2976 2973 2972 2972 2970 2966 2963 2963 2965 2966 2966 2966 2966 2966 2969 2973 2977 2981 2982 2983 2985 2987 2988
2980 2979 2980 2979 2982 2981 2981 2981 2982 2983 2981 2981 2983 2977 2977 2977 2975 2976 2975 2974 2971 2969 2968 2964 2961 2960 2959 2956 2954 2954 2953 2954 2956 2957 2958 2959 2964 2968 2970 2972 2973 2976 2978 2979
2974 2971 2972 2973 2976 2978 2977 2977 2977 2979 2979 2977 2974 2974 2973 2970 2968 2969 2968 2965 2961 2959 2957 2955 2952 2949 2947 2946 2944 2944 2945 2944 2945 2947 2949 2952 2954 2957 2961 2963 2965 2966 2968 2970
2969 2963 2964 2965 2968 2970 2970 2971 2972 2972 2972 2972 2968 2968 2964 2964 2961 2959 2958 2957 2955 2950 2947 2944 2942 2940 2939 2937 2935 2936 2937 2937 2938 2940 2942 2944 2947 2949 2952 2954 2958 2961 2964 2965
2958 2957 2958 2958 2962 2963 2962 2963 2963 2964 2963 2961 2961 2962 2959 2959 2957 2956 2955 2952 2949 2944 2940 2936 2933 2931 2930 2928 2927 2928 2930 2931 2932 2933 2935 2939 2942 2945 2948 2952 2954 2957 2958 2959
2955 2955 2954 2950 2954 2955 2954 2952 2953 2953 2953 2953 2954 2955 2955 2954 2953 2951 2948 2944 2940 2937 2934 2930 2926 2923 2922 2920 2920 2920 2922 2925 2927 2930 2934 2937 2939 2941 2943 2946 2947 2950 2950 2951
2948 2949 2950 2946 2949 2948 2943 2944 2945 2946 2946 2947 2948 2948 2950 2949 2947 2944 2941 2939 2935 2932 2928 2924 2920 2918 2916 2915 2914 2915 2917 2921 2924 2927 2930 2932 2934 2936 2938 2939 2941 2942 2943 2945
2940 2942 2943 2941 2942 2941 2939 2938 2940 2940 2942 2943 2943 2943 2944 2945 2943 2940 2936 2934 2932 2929 2925 2921 2917 2915 2913 2911 2911 2912 2914 2917 2921 2924 2926 2928 2929 2931 2932 2934 2935 2936 2937 2939
2934 2935 2939 2937 2935 2934 2932 2932 2933 2934 2936 2937 2939 2939 2940 2940 2939 2937 2934 2932 2929 2926 2923 2920 2915 2914 2912 2910 2910 2911 2913 2916 2919 2921 2922 2923 2925 2926 2927 2928 2930 2931 2932 2934
2930 2931 2930 2930 2930 2928 2928 2929 2931 2933 2937 2933 2934 2935 2935 2934 2933 2931 2930 2928 2926 2925 2922 2918 2915 2913 2912 2910 2910 2911 2913 2915 2916 2917 2918 2919 2920 2921 2923 2924 2925 2926 2928 2929
2925 2926 2924 2924 2924 2925 2926 2928 2930 2930 2927 2929 2930 2930 2930 2929 2927 2926 2925 2925 2923 2922 2920 2917 2915 2913 2911 2910 2910 2910 2911 2912 2912 2913 2914 2915 2916 2917 2918 2919 2921 2922 2923 2924
2922 2921 2919 2920 2919 2920 2920 2922 2923 2925 2925 2926 2926 2925 2925 2923 2922 2921 2920 2920 2919 2918 2917 2916 2914 2912 2911 2910 2909 2909 2909 2909 2910 2910 2911 2911 2912 2913 2914 2915 2916 2917 2918 2919
2916 2915 2916 2917 2916 2917 2919 2919 2920 2921 2921 2921 2921 2920 2919 2918 2917 2916 2915 2915 2914 2914 2913 2912 2911 2910 2909 2909 2908 2908 2907 2907 2907 2907 2907 2908 2909 2909 2910 2910 2911 2912 2913 2915
2915 2914 2913 2914 2914 2915 2915 2916 2916 2916 2915 2916 2915 2914 2913 2912 2911 2910 2910 2909 2909 2908 2908 2907 2907 2906 2906 2905 2905 2905 2904 2904 2904 2904 2904 2905 2905 2905 2905 2906 2907 2908 2909 2910
2910 2910 2912 2911 2911 2911 2911 2911 2911 2911 2910 2910 2910 2908 2906 2906 2905 2905 2903 2902 2902 2902 2902 2902 2902 2902 2902 2901 2901 2901 2901 2901 2901 2900 2900 2900 2900 2901 2902 2903 2904 2904 2905 2906